TimePST,TemperatureF,Dew PointF,Humidity,Sea Level PressureIn,VisibilityMPH,Wind Direction,Wind SpeedMPH,Gust SpeedMPH,PrecipitationIn,Events,Conditions,WindDirDegrees,DateUTC
12:15 AM,53.6,41.0,62,29.53,10.0,SSE,12.7,31.1,N/A,,Clear,160,2012-12-04 08:15:00
12:35 AM,53.6,41.0,62,29.52,10.0,SSE,10.4,27.6,N/A,,Clear,150,2012-12-04 08:35:00
12:55 AM,51.8,41.0,67,29.52,10.0,SSE,12.7,24.2,N/A,,Clear,160,2012-12-04 08:55:00
1:15 AM,50.0,41.0,71,29.51,10.0,SSE,11.5,24.2,N/A,,Clear,150,2012-12-04 09:15:00
1:35 AM,50.0,41.0,71,29.49,10.0,South,13.8,24.2,N/A,,Partly Cloudy,170,2012-12-04 09:35:00
1:55 AM,48.2,44.6,87,29.47,5.0,SSE,9.2,24.2,N/A,Rain,Light Rain,150,2012-12-04 09:55:00
2:15 AM,48.2,44.6,87,29.47,4.0,SSE,10.4,20.7,0.04,Rain,Rain,160,2012-12-04 10:15:00
2:35 AM,46.4,44.6,93,29.46,4.0,SSE,12.7,25.3,0.11,Rain,Heavy Rain,150,2012-12-04 10:35:00
2:55 AM,46.4,44.6,93,29.44,4.0,SSE,11.5,21.9,0.12,Rain,Light Rain,160,2012-12-04 10:55:00
3:15 AM,46.4,44.6,93,29.43,10.0,SSE,16.1,29.9,N/A,,Mostly Cloudy,150,2012-12-04 11:15:00
3:35 AM,48.2,42.8,82,29.41,9.0,SE,18.4,33.4,N/A,,Mostly Cloudy,140,2012-12-04 11:35:00
3:55 AM,48.2,42.8,82,29.41,10.0,South,10.4,25.3,N/A,,Mostly Cloudy,170,2012-12-04 11:55:00
4:15 AM,48.2,42.8,82,29.40,10.0,SSE,13.8,29.9,N/A,,Mostly Cloudy,160,2012-12-04 12:15:00
4:35 AM,48.2,44.6,87,29.40,10.0,South,12.7,28.8,N/A,,Mostly Cloudy,180,2012-12-04 12:35:00
4:55 AM,48.2,44.6,87,29.41,10.0,South,11.5,28.8,N/A,,Mostly Cloudy,190,2012-12-04 12:55:00
5:15 AM,48.2,44.6,87,29.42,10.0,South,16.1,25.3,N/A,,Mostly Cloudy,180,2012-12-04 13:15:00
5:35 AM,48.2,44.6,87,29.42,10.0,South,15.0,29.9,N/A,,Mostly Cloudy,180,2012-12-04 13:35:00
5:55 AM,50.0,44.6,82,29.44,10.0,South,15.0,23.0,N/A,,Mostly Cloudy,190,2012-12-04 13:55:00
6:15 AM,50.0,44.6,82,29.46,10.0,South,12.7,20.7,N/A,,Overcast,170,2012-12-04 14:15:00
6:35 AM,50.0,44.6,82,29.47,10.0,South,12.7,33.4,N/A,,Mostly Cloudy,170,2012-12-04 14:35:00
6:55 AM,48.2,46.4,93,29.49,10.0,SW,19.6,26.5,N/A,,Mostly Cloudy,220,2012-12-04 14:55:00
7:15 AM,48.2,46.4,93,29.51,9.0,South,16.1,21.9,N/A,Rain,Light Rain,190,2012-12-04 15:15:00
7:35 AM,48.2,46.4,93,29.52,10.0,South,10.4,19.6,N/A,,Overcast,190,2012-12-04 15:35:00
7:55 AM,48.2,46.4,93,29.54,10.0,SSW,11.5,23.0,N/A,,Overcast,210,2012-12-04 15:55:00
8:15 AM,48.2,44.6,87,29.55,10.0,SSW,13.8,23.0,N/A,,Scattered Clouds,200,2012-12-04 16:15:00
8:35 AM,50.0,42.8,76,29.57,10.0,SSW,10.4,17.3,N/A,,Clear,200,2012-12-04 16:35:00
8:55 AM,50.0,39.2,66,29.59,10.0,SSE,6.9,-,N/A,,Clear,150,2012-12-04 16:55:00
9:15 AM,50.0,39.2,66,29.60,10.0,WSW,4.6,-,N/A,,Scattered Clouds,250,2012-12-04 17:15:00
9:35 AM,50.0,39.2,66,29.62,10.0,WNW,3.5,-,N/A,,Partly Cloudy,300,2012-12-04 17:35:00
9:55 AM,50.0,39.2,66,29.63,10.0,West,9.2,-,N/A,,Clear,260,2012-12-04 17:55:00
10:15 AM,50.0,39.2,66,29.64,10.0,West,10.4,17.3,N/A,,Partly Cloudy,260,2012-12-04 18:15:00
10:35 AM,50.0,41.0,71,29.65,10.0,WSW,5.8,16.1,N/A,,Scattered Clouds,250,2012-12-04 18:35:00
10:55 AM,50.0,39.2,66,29.66,10.0,WSW,8.1,-,N/A,,Partly Cloudy,250,2012-12-04 18:55:00
11:15 AM,50.0,39.2,66,29.67,10.0,WSW,8.1,-,N/A,,Clear,250,2012-12-04 19:15:00
11:35 AM,50.0,39.2,66,29.67,10.0,SW,9.2,-,N/A,,Mostly Cloudy,220,2012-12-04 19:35:00
11:55 AM,50.0,39.2,66,29.68,10.0,SSW,9.2,-,N/A,,Mostly Cloudy,210,2012-12-04 19:55:00
12:15 PM,50.0,39.2,66,29.68,10.0,South,3.5,-,N/A,,Overcast,170,2012-12-04 20:15:00
12:35 PM,50.0,39.2,66,29.68,10.0,Calm,Calm,-,N/A,,Overcast,0,2012-12-04 20:35:00
12:55 PM,50.0,39.2,66,29.68,10.0,SSW,4.6,-,N/A,,Overcast,210,2012-12-04 20:55:00
1:15 PM,50.0,39.2,66,29.68,10.0,SW,4.6,-,N/A,,Overcast,220,2012-12-04 21:15:00
1:35 PM,50.0,39.2,66,29.68,10.0,Calm,Calm,-,N/A,,Overcast,0,2012-12-04 21:35:00
1:55 PM,50.0,39.2,66,29.68,10.0,Calm,Calm,-,N/A,Rain,Light Rain,0,2012-12-04 21:55:00
2:15 PM,50.0,39.2,66,29.67,10.0,Calm,Calm,-,N/A,,Overcast,0,2012-12-04 22:15:00
2:35 PM,48.2,41.0,76,29.67,10.0,Calm,Calm,-,N/A,,Overcast,0,2012-12-04 22:35:00
2:55 PM,48.2,41.0,76,29.67,9.0,Calm,Calm,-,N/A,Rain,Light Rain,0,2012-12-04 22:55:00
3:35 PM,46.4,42.8,87,29.69,3.0,Calm,Calm,-,N/A,Rain,Light Rain,0,2012-12-04 23:35:00
3:55 PM,46.4,42.8,87,29.68,2.5,Calm,Calm,-,N/A,Rain,Light Rain,0,2012-12-04 23:55:00
4:15 PM,44.6,42.8,93,29.67,7.0,Calm,Calm,-,N/A,Rain,Light Rain,0,2012-12-05 00:15:00
4:35 PM,44.6,44.6,100,29.67,10.0,Calm,Calm,-,N/A,Rain,Light Rain,0,2012-12-05 00:35:00
4:55 PM,44.6,44.6,100,29.66,5.0,Calm,Calm,-,N/A,Rain,Light Rain,0,2012-12-05 00:55:00
5:15 PM,44.6,42.8,93,29.66,8.0,North,-9999.0,-,N/A,,Mostly Cloudy,0,2012-12-05 01:15:00
5:35 PM,42.8,42.8,100,29.65,10.0,Calm,Calm,-,N/A,,Partly Cloudy,0,2012-12-05 01:35:00
5:55 PM,41.0,41.0,100,29.65,8.0,Calm,Calm,-,N/A,,Clear,0,2012-12-05 01:55:00
6:15 PM,41.0,41.0,100,29.64,10.0,North,-9999.0,-,N/A,,Clear,0,2012-12-05 02:15:00
6:35 PM,41.0,41.0,100,29.65,10.0,North,-9999.0,-,N/A,,Partly Cloudy,0,2012-12-05 02:35:00
6:55 PM,44.6,42.8,93,29.64,5.0,South,3.5,-,N/A,Rain,Light Rain,180,2012-12-05 02:55:00
7:15 PM,44.6,42.8,93,29.64,9.0,South,5.8,-,N/A,Rain,Light Rain,180,2012-12-05 03:15:00
7:35 PM,44.6,41.0,87,29.62,10.0,South,3.5,-,N/A,,Partly Cloudy,180,2012-12-05 03:35:00
7:55 PM,44.6,42.8,93,29.63,10.0,South,6.9,-,N/A,,Partly Cloudy,180,2012-12-05 03:55:00
8:15 PM,44.6,42.8,93,29.64,10.0,South,8.1,-,N/A,Rain,Light Rain,180,2012-12-05 04:15:00
8:35 PM,44.6,42.8,93,29.65,10.0,SSW,10.4,-,N/A,Rain,Light Rain,210,2012-12-05 04:35:00
8:55 PM,44.6,41.0,87,29.67,4.0,WSW,9.2,21.9,0.03,Rain,Light Rain,240,2012-12-05 04:55:00
9:15 PM,44.6,41.0,87,29.66,10.0,South,6.9,-,N/A,,Scattered Clouds,190,2012-12-05 05:15:00
9:35 PM,44.6,41.0,87,29.68,10.0,SSW,9.2,-,N/A,,Partly Cloudy,210,2012-12-05 05:35:00
9:55 PM,44.6,41.0,87,29.69,7.0,SW,9.2,25.3,N/A,Rain,Light Rain,220,2012-12-05 05:55:00
10:15 PM,42.8,41.0,93,29.69,10.0,SSW,11.5,17.3,N/A,,Scattered Clouds,200,2012-12-05 06:15:00
10:35 PM,42.8,41.0,93,29.71,10.0,SSW,10.4,-,N/A,Rain,Light Rain,200,2012-12-05 06:35:00
10:55 PM,41.0,37.4,87,29.72,8.0,SSW,15.0,19.6,N/A,Rain,Light Rain,210,2012-12-05 06:55:00
11:15 PM,41.0,37.4,87,29.74,10.0,South,9.2,-,N/A,,Partly Cloudy,190,2012-12-05 07:15:00
11:35 PM,41.0,37.4,87,29.75,10.0,SSW,10.4,17.3,N/A,,Mostly Cloudy,200,2012-12-05 07:35:00
11:55 PM,41.0,37.4,87,29.76,10.0,SSW,12.7,-,N/A,,Scattered Clouds,200,2012-12-05 07:55:00